HA3YA-WX Weather Reports


Display with metric or nautical units.
time (UTC)temp
F
wind
direction
speed
MPH
gust
MPH
rain 1hr
in
rain 24hr
in
rain mn
in
humidity
%
barometer
mb
20260905231303 67 0.0 0.0 0.00 0.00 0.00 88 1009.5
20260905230303 67 0.0 0.0 0.00 0.00 0.00 87 1009.3
20260905225305 68 0.0 0.0 0.00 0.00 0.00 88 1009.3
20260905224303 68 0.0 0.0 0.00 0.00 0.00 89 1009.3
20260905223302 68 0.0 0.0 0.00 0.00 0.00 89 1009.3
20260905222305 68 0.0 0.0 0.00 0.00 0.00 89 1009.3
20260905221302 68 0.0 0.0 0.00 0.00 0.00 91 1009.0
20260905220303 68 0.0 0.0 0.00 0.00 0.00 92 1009.0
20260905215305 67 0.0 0.0 0.00 0.00 0.00 95 1009.2
20260905214303 66 0.0 0.0 0.00 0.00 0.00 96 1009.2
20260905213303 65 0.0 0.0 0.00 0.00 0.00 96 1009.2
20260905212305 65 0.0 0.0 0.00 0.00 0.00 97 1009.2
20260905211302 65 0.0 0.0 0.00 0.00 0.00 100 1009.0
20260905210303 64 0.0 0.0 0.00 0.00 0.00 100 1009.0
20260905205306 63 0.0 0.0 0.00 0.00 0.00 100 1009.0
20260905204302 63 0.0 0.0 0.00 0.00 0.00 100 1009.0
20260905203302 64 0.0 0.0 0.00 0.00 0.00 100 1008.9
20260905202306 65 0.0 0.0 0.00 0.00 0.00 100 1008.9
20260905201302 65 0.0 0.0 0.00 0.00 0.00 100 1008.0
20260905200303 65 0.0 0.0 0.00 0.00 0.00 100 1008.0
20260905195306 65 0.0 0.0 0.00 0.00 0.00 100 1008.0
20260905194303 65 0.0 0.0 0.00 0.00 0.00 100 1008.0
20260905193303 64 0.0 0.0 0.00 0.00 0.00 100 1008.2
20260905192305 64 0.0 0.0 0.00 0.00 0.00 100 1008.0
20260905191302 64 0.0 0.0 0.00 0.00 0.00 100 1007.0
20260905190302 64 0.0 0.0 0.00 0.00 0.00 100 1007.6
20260905185305 64 0.0 0.0 0.00 0.00 0.00 100 1007.6
20260905184303 64 0.0 0.0 0.00 0.00 0.00 100 1007.6
20260905183303 64 0.0 0.0 0.00 0.00 0.00 100 1007.6
20260905182305 64 0.0 0.0 0.00 0.00 0.00 100 1007.0
20260905181303 64 0.0 0.0 0.00 0.00 0.00 100 1007.0
20260905180302 64 0.0 0.0 0.00 0.00 0.00 100 1007.0
20260905175306 64 0.0 0.0 0.00 0.00 0.00 100 1007.0
20260905174303 64 0.0 0.0 0.00 0.00 0.00 100 1006.8
20260905173303 64 0.0 0.0 0.00 0.00 0.00 100 1006.0
20260905172305 65 0.0 0.0 0.00 0.00 0.00 100 1006.0
20260905171303 65 0.0 0.0 0.00 0.00 0.00 100 1006.0
20260905170302 65 0.0 0.0 0.00 0.00 0.00 100 1006.0
20260905165306 65 0.0 0.0 0.00 0.00 0.00 100 1006.0
20260905164303 65 0.0 0.0 0.00 0.00 0.00 100 1006.4
20260905163302 65 0.0 0.0 0.00 0.00 0.00 100 1006.4
20260905162305 66 0.0 0.0 0.00 0.00 0.00 100 1006.4
20260905161302 66 0.0 0.0 0.00 0.00 0.00 100 1006.4
20260905160302 65 0.0 0.0 0.00 0.00 0.00 100 1006.4
20260905155306 65 0.0 0.0 0.00 0.00 0.00 100 1006.4
20260905154303 65 0.0 0.0 0.00 0.00 0.00 100 1006.4
20260905153302 65 0.0 0.0 0.00 0.00 0.00 100 1006.0
20260905152306 65 0.0 0.0 0.00 0.00 0.00 100 1006.0
20260905151303 65 0.0 0.0 0.00 0.00 0.00 100 1006.0
20260905150303 65 0.0 0.0 0.00 0.00 0.00 100 1006.0
20260905145306 65 0.0 0.0 0.00 0.00 0.00 100 1007.0
20260905144302 65 0.0 0.0 0.00 0.00 0.00 100 1006.0
20260905143302 65 0.0 0.0 0.00 0.00 0.00 100 1006.0
20260905142305 65 0.0 0.0 0.00 0.00 0.00 100 1006.4
20260905141302 65 0.0 0.0 0.00 0.00 0.00 100 1006.4
20260905140302 64 0.0 0.0 0.00 0.00 0.00 100 1006.4
20260905135306 64 0.0 0.0 0.00 0.00 0.00 100 1006.4
20260905134302 64 0.0 0.0 0.00 0.00 0.00 100 1006.4
20260905133303 64 0.0 0.0 0.00 0.00 0.00 100 1006.0
20260905132305 64 0.0 0.0 0.00 0.00 0.00 100 1006.0
20260905131303 64 0.0 0.0 0.00 0.00 0.00 100 1006.0
20260905130302 65 0.0 0.0 0.00 0.00 0.00 99 1006.0
20260905125305 65 0.0 0.0 0.00 0.00 0.00 97 1006.0
20260905124303 66 0.0 0.0 0.00 0.00 0.00 93 1006.5
20260905123302 69 0.0 0.0 0.00 0.00 0.00 87 1006.0
20260905122306 69 0.0 0.0 0.00 0.00 0.00 81 1006.0
20260905121302 70 0.0 0.0 0.00 0.00 0.00 78 1006.0
20260905120302 70 0.0 0.0 0.00 0.00 0.00 76 1006.6
20260905115305 70 0.0 0.0 0.00 0.00 0.00 75 1006.6
20260905114302 72 0.0 0.0 0.00 0.00 0.00 71 1006.6
20260905113302 73 0.0 0.0 0.00 0.00 0.00 70 1006.0
20260905112305 75 0.0 0.0 0.00 0.00 0.00 67 1006.0
20260905111303 78 0.0 0.0 0.00 0.00 0.00 60 1006.0
20260905110302 81 0.0 0.0 0.00 0.00 0.00 60 1006.0
20260905105305 80 0.0 0.0 0.00 0.00 0.00 62 1006.0
20260905104303 80 0.0 0.0 0.00 0.00 0.00 63 1006.0
20260905103302 79 0.0 0.0 0.00 0.00 0.00 63 1006.0
20260905102305 78 0.0 0.0 0.00 0.00 0.00 64 1006.0
20260905101303 77 0.0 0.0 0.00 0.00 0.00 65 1006.0
20260905100302 77 0.0 0.0 0.00 0.00 0.00 65 1006.0
20260905095305 77 0.0 0.0 0.00 0.00 0.00 65 1006.5
20260905094303 77 0.0 0.0 0.00 0.00 0.00 65 1006.4
20260905093302 77 0.0 0.0 0.00 0.00 0.00 65 1006.4
20260905092306 77 0.0 0.0 0.00 0.00 0.00 66 1006.4
20260905091302 76 0.0 0.0 0.00 0.00 0.00 66 1006.4
20260905090303 76 0.0 0.0 0.00 0.00 0.00 66 1006.4
20260905085305 76 0.0 0.0 0.00 0.00 0.00 66 1006.0
20260905084302 76 0.0 0.0 0.00 0.00 0.00 66 1006.0
20260905083303 76 0.0 0.0 0.00 0.00 0.00 67 1005.0
20260905082306 76 0.0 0.0 0.00 0.00 0.00 67 1005.0
20260905081302 76 0.0 0.0 0.00 0.00 0.00 68 1005.0
20260905080303 76 0.0 0.0 0.00 0.00 0.00 69 1005.0
20260905075305 77 0.0 0.0 0.00 0.00 0.00 70 1005.0
20260905074303 77 0.0 0.0 0.00 0.00 0.00 70 1004.0
20260905073303 77 0.0 0.0 0.00 0.00 0.00 71 1004.0
20260905072305 77 0.0 0.0 0.00 0.00 0.00 73 1004.0
20260905071302 76 0.0 0.0 0.00 0.00 0.00 78 1003.0
20260905070302 75 0.0 0.0 0.00 0.00 0.00 80 1003.0
20260905065306 75 0.0 0.0 0.00 0.00 0.00 85 1003.0
20260905064302 75 0.0 0.0 0.00 0.00 0.00 83 1002.0
20260905063302 74 0.0 0.0 0.00 0.00 0.00 82 1002.0
20260905062305 73 0.0 0.0 0.00 0.00 0.00 83 1002.0
20260905061302 72 0.0 0.0 0.00 0.00 0.00 85 1002.0
20260905060303 72 0.0 0.0 0.00 0.00 0.00 87 1002.0
20260905055306 72 0.0 0.0 0.00 0.00 0.00 88 1001.0
20260905054302 72 0.0 0.0 0.00 0.00 0.00 88 1001.0
20260905053302 72 0.0 0.0 0.00 0.00 0.00 88 1001.0
20260905052306 72 0.0 0.0 0.00 0.00 0.00 89 1001.7
20260905051302 71 0.0 0.0 0.00 0.00 0.00 91 1001.7
20260905050302 70 0.0 0.0 0.00 0.00 0.00 92 1001.0
20260905045305 70 0.0 0.0 0.00 0.00 0.00 91 1001.0
20260905044303 69 0.0 0.0 0.00 0.00 0.00 87 1001.0
20260905043302 68 0.0 0.0 0.00 0.00 0.00 87 1001.0
20260905042306 68 0.0 0.0 0.00 0.00 0.00 87 1001.2
20260905041303 68 0.0 0.0 0.00 0.00 0.00 87 1001.2
20260905040302 68 0.0 0.0 0.00 0.00 0.00 86 1000.8
20260905035306 68 0.0 0.0 0.00 0.00 0.00 86 1000.8
20260905034303 68 0.0 0.0 0.00 0.00 0.00 87 1000.8
20260905033302 68 0.0 0.0 0.00 0.00 0.00 86 1000.8
20260905032306 68 0.0 0.0 0.00 0.00 0.00 85 1000.8
20260905031303 68 0.0 0.0 0.00 0.00 0.00 84 1000.8
20260905030302 69 0.0 0.0 0.00 0.00 0.00 83 1000.8
20260905025306 69 0.0 0.0 0.00 0.00 0.00 83 1000.8
20260905024303 69 0.0 0.0 0.00 0.00 0.00 82 1000.8
20260905023303 70 0.0 0.0 0.00 0.00 0.00 81 1000.8
20260905022305 71 0.0 0.0 0.00 0.00 0.00 81 1000.0
20260905021302 71 0.0 0.0 0.00 0.00 0.00 80 1000.0
20260905020303 72 0.0 0.0 0.00 0.00 0.00 79 1000.0
20260905015306 71 0.0 0.0 0.00 0.00 0.00 81 1000.7
20260905014302 71 0.0 0.0 0.00 0.00 0.00 81 1000.7
20260905013302 72 0.0 0.0 0.00 0.00 0.00 80 1000.7
20260905012306 72 0.0 0.0 0.00 0.00 0.00 80 1000.6
20260905011303 72 0.0 0.0 0.00 0.00 0.00 78 1000.6
20260905010302 73 0.0 0.0 0.00 0.00 0.00 77 1000.6
20260905005306 73 0.0 0.0 0.00 0.00 0.00 76 1000.6
20260905004302 73 0.0 0.0 0.00 0.00 0.00 77 1000.6
20260905003302 73 0.0 0.0 0.00 0.00 0.00 78 1000.6
20260905002305 74 0.0 0.0 0.00 0.00 0.00 78 1000.0
20260905001302 75 0.0 0.0 0.00 0.00 0.00 77 1000.0
20260905000303 75 0.0 0.0 0.00 0.00 0.00 77 1000.0
20260904235305 75 0.0 0.0 0.00 0.00 0.00 79 1000.0
20260904234302 75 0.0 0.0 0.00 0.00 0.00 80 1000.7
20260904233302 75 0.0 0.0 0.00 0.00 0.00 85 1000.0
20260904232306 74 0.0 0.0 0.00 0.00 0.00 85 1000.0